NW Arkansas Airport, AR

3:43 PM CDT on August 19, 2017 (GMT -0500)
Northwest Arkansas Regional

Weather History for KXNA - December, 2012

Change the Weather History Date:

Monday, December 10, 2012

  Actual Average (KVBT) Record (KVBT)
Temperature  
Mean Temperature 26 °F -  
Max Temperature 32 °F 48 °F 69 °F (2015)
Min Temperature 19 °F 27 °F 8 °F (1977)
Degree Days  
Heating Degree Days 38    
Moisture  
Dew Point 18 °F    
Average Humidity 72    
Maximum Humidity 92    
Minimum Humidity 61    
Precipitation  
Precipitation 0.00 in - - ()
Sea Level Pressure  
Sea Level Pressure 30.07 in    
Wind  
Wind Speed 11 mph (NW)    
Max Wind Speed 16 mph    
Max Gust Speed 21 mph    
Visibility 10 miles    
Events      
Averages and records for this station are not official NWS values.
T = Trace of Precipitation, MM = Missing Value Source: NWS Daily Summary

Daily Weather History Graph

Daily Weather History Graph

Search for Another Location

Airport or City:

Trip Planner

Search our weather history database for the weather conditions in past years. The results will help you decide how hot, cold, wet, or windy it might be!

Date:

Astronomy

Dec. 10, 2012 Rise Set
Actual Time 7:18 AM CST 5:02 PM CST
Civil Twilight 6:49 AM CST 5:31 PM CST
Nautical Twilight 6:17 AM CST 6:03 PM CST
Astronomical Twilight 5:46 AM CST 6:34 PM CST
Moon 4:05 AM CST (12/10) 2:49 PM CST (12/10)
Length of Visible Light 10h 41m
Length of Day
9h 44m
Waning Crescent, 10% of the Moon is Illuminated
Dec 10
Waning Crescent
Dec 13
New
Dec 19
First Quarter
Dec 28
Full
Jan 4
Last Quarter

Hourly Weather History & Observations

Time (CST) Temp. Windchill Dew Point Humidity Pressure Visibility Wind Dir Wind Speed Gust Speed Precip Events Conditions
12:53 AM 27.0 °F 14.7 °F 16.0 °F 63% 30.03 in 10.0 mi NNW 16.1 mph 20.7 mph N/A   Clear
1:53 AM 26.1 °F 15.0 °F 17.1 °F 69% 30.02 in 10.0 mi NNW 12.7 mph - N/A   Clear
2:53 AM 25.0 °F 15.5 °F 17.1 °F 72% 30.03 in 10.0 mi NNW 9.2 mph - N/A   Partly Cloudy
3:53 AM 25.0 °F 14.2 °F 16.0 °F 69% 30.03 in 10.0 mi NNW 11.5 mph - N/A   Mostly Cloudy
4:53 AM 25.0 °F 13.1 °F 17.1 °F 72% 30.03 in 10.0 mi NNW 13.8 mph 19.6 mph N/A   Overcast
5:53 AM 23.0 °F 10.6 °F 15.1 °F 72% 30.05 in 10.0 mi NW 13.8 mph - N/A   Overcast
6:48 AM 23.0 °F 11.7 °F 15.8 °F 74% 30.05 in 10.0 mi NW 11.5 mph - N/A   Overcast
6:53 AM 23.0 °F 11.1 °F 15.1 °F 72% 30.09 in 10.0 mi NW 12.7 mph - N/A   Overcast
7:53 AM 23.0 °F 12.4 °F 16.0 °F 74% 30.10 in 10.0 mi NW 10.4 mph - N/A   Overcast
8:53 AM 24.1 °F 13.7 °F 16.0 °F 71% 30.09 in 10.0 mi NNW 10.4 mph - N/A   Overcast
10:53 AM 27.0 °F 19.5 °F 19.0 °F 72% 30.09 in 10.0 mi NW 6.9 mph - N/A   Mostly Cloudy
11:53 AM 28.9 °F 21.1 °F 19.9 °F 69% 30.09 in 10.0 mi NW 8.1 mph - N/A   Mostly Cloudy
12:01 PM 28.4 °F 19.7 °F 19.4 °F 69% 30.06 in 10.0 mi WNW 9.2 mph - N/A   Scattered Clouds
12:09 PM 30.2 °F 21.3 °F 21.2 °F 69% 30.05 in 10.0 mi NW 10.4 mph - N/A   Mostly Cloudy
12:18 PM 30.2 °F 20.8 °F 19.4 °F 64% 30.05 in 10.0 mi WNW 11.5 mph - N/A   Scattered Clouds
12:53 PM 30.0 °F 21.1 °F 19.9 °F 66% 30.06 in 10.0 mi NNW 10.4 mph 17.3 mph N/A   Clear
1:53 PM 30.9 °F 23.5 °F 19.0 °F 61% 30.06 in 10.0 mi NW 8.1 mph - N/A   Clear
2:53 PM 32.0 °F 24.8 °F 19.9 °F 61% 30.05 in 10.0 mi NNW 8.1 mph - N/A   Clear
3:53 PM 30.9 °F 22.8 °F 19.9 °F 64% 30.06 in 10.0 mi NW 9.2 mph - N/A   Clear
4:53 PM 28.9 °F 21.9 °F 19.0 °F 67% 30.05 in 10.0 mi NW 6.9 mph - N/A   Clear
5:53 PM 27.0 °F 21.6 °F 19.0 °F 72% 30.09 in 10.0 mi WNW 4.6 mph - N/A   Clear
6:53 PM 26.1 °F 21.9 °F 19.0 °F 75% 30.09 in 10.0 mi WNW 3.5 mph - N/A   Clear
7:53 PM 23.0 °F 17.0 °F 18.0 °F 81% 30.09 in 10.0 mi South 4.6 mph - N/A   Clear
8:53 PM 21.9 °F 17.2 °F 18.0 °F 85% 30.10 in 10.0 mi West 3.5 mph - N/A   Clear
9:53 PM 21.0 °F - 18.0 °F 88% 30.10 in 10.0 mi Calm Calm - N/A   Clear
10:53 PM 21.0 °F - 18.0 °F 88% 30.11 in 10.0 mi Calm Calm - N/A   Clear
11:53 PM 19.0 °F 11.1 °F 17.1 °F 92% 30.13 in 10.0 mi SSW 5.8 mph - N/A   Clear